Location: Grantsboro
(35.1404°N, 76.8424°W)
Time: 00:31:33
(UTC+00:00)

STARLINK-72 - Pass Details

Date: 18 January 2020
Orbit: 528 x 531 km, 53.0° (Epoch: 23 February)

Event Time Altitude Azimuth Distance (km) Brightness Sun altitude
Exits shadow 10:17:58 13° 188° (S) 1,599 6.0 -23.6°
Drops below altitude 10° 10:24:35 10° 66° (ENE) 1,769 7.0 -22.2°
Enters shadow 11:28:19 -56° 229° (SW) 11,210 10.2 -9.6°
Maximum altitude 12:00:05 30° 324° (NW) 967 4.4 -3.5°
